DECAYED

COSMOS 1408 DEB, 52066 (Decayed)

Orbit data source: Space-Track

COSMOS 1408 DEB, 52066 was space debris in LEO originally from a launch on Thu, 16 Sep 1982 UTC launched from the Plesetsk Missile And Space Complex (PKMTR). Cosmos 1408 debris is a result of deliberate destruction of the defunct Soviet-era reconnaissance satellite Cosmos 1408 by a Russian anti-satellite missile in 2021. This event added many debris pieces to Earth's orbit, complicating space navigation and increasing collision risks for operational satellites and the International Space Station. The Cosmos 1408 debris has heightened concerns about space safety and militarization, emphasizing the urgent need for comprehensive space debris management strategies.

Not visible in the next 10 days
Identifier
52066, 1982-092BUU
Orbit
Decayed
Country
Flag of CISCIS
Related business
Manufacturer
Yuzhnoe
Mission
Decayed spacecraft
Bus & Motor
Unknown
Mass
Unknown
Launch date (UTC)
1982-09-16 (43 years ago)
Launch vehicle
Unknown
Launch site
Plesetsk Missile And Space Complex (PKMTR)
Object type
Payload
Rocket body
Debris
Shape & HBR
Unknown shape, 0.1 m
Radar Cross Section
Small (<0.1 m²)

Expand to show TLE details & history
Last TLE update: 7 months ago

TLE from 7 months ago
0 COSMOS 1408 DEB
1 52066U 82092BUU 25080.79773729  .00469714  00000-0  26753-2 0  9992
2 52066  82.4950  21.1284 0043552 193.9459 166.0608 15.76395812168982
Epoch: 2025-03-21T19:08Z
TLE epoch observation values (Epoch: 2025-03-21T19:08:44.501Z)
Latitude
-0.00005°
Longitude
-85.60903°
Altitude
372.24 km
Speed
7.67 km/s
True Right ascension
01h 24m 30s
True Declination
0° 00' 00"
Sunlit
Object was in daylight at epoch
Visualization orbit readout
Latitude
Unknown
Longitude
Unknown
Altitude
Unknown
Speed
Unknown
Apparent Right ascension
Unknown
Apparent Declination
Unknown
Sunlit
N/A
Visualization observer readout
Local Sidereal Time
14:04:25
Azimuth
Unknown
Elevation
Unknown
Doppler factor
Unknown
Orbital elements
Apogee altitude
366.806 km
Perigee altitude
308.309 km
Semi-major axis
6,715.695 km
Eccentricity
0.00436
Inclination
82.495°
RAAN
21.1284°
Arg. of periapsis
193.9459°
True anomaly
166.18039°
Mean anomaly
166.0608°
Eccentric anomaly
166.12066°
Mean motion
3.94373 °/min
Orbital period
91.28 mins
BSTAR
0.0026753

Documentation

Showing up to 5 results
|